When you browse on this site, cookies collect data to enhance your experience and personalize the content and advertising you see.
Visit our Privacy Policy to learn more. By continuing to use the site, you agree to this use of cookies and data.
  • In Deutschland
  • Länderverzeichnis
  • Für 7 Tage
  • Wassertemperatur
  • Satellitenkarten
  • Wetterkarte
  • Widgets
  • user-avatar
    Anmelden

    Stündliche Wetter Nakhidka

    Heute, 12 Dezember, Mittwoch

    Zeit Temperatur Niederschläge Wind Luftdruck Luftfeuchtigkeit
    00:00 0°C° 0.5 mm 10 m/S 749 mmHg 90%
    01:00 -2°C° 0.5 mm 10 m/S 750 mmHg 90%
    02:00 0°C° 0 mm 10 m/S 750 mmHg 89%
    03:00 0°C° 0.2 mm 9 m/S 750 mmHg 89%
    04:00 0°C° 0.2 mm 9 m/S 751 mmHg 89%
    05:00 0°C° 0.2 mm 8 m/S 751 mmHg 89%
    06:00 0°C° 0 mm 8 m/S 752 mmHg 89%
    07:00 0°C° 0 mm 8 m/S 752 mmHg 89%
    08:00 0°C° 0 mm 8 m/S 753 mmHg 88%
    09:00 0°C° 0 mm 8 m/S 753 mmHg 86%
    10:00 0°C° 0 mm 8 m/S 754 mmHg 85%
    11:00 +1°C° 0 mm 8 m/S 754 mmHg 83%
    12:00 +2°C° 0 mm 7 m/S 754 mmHg 82%
    13:00 +2°C° 0 mm 7 m/S 754 mmHg 81%
    14:00 +2°C° 0 mm 7 m/S 755 mmHg 80%
    15:00 +2°C° 0 mm 6 m/S 755 mmHg 81%
    16:00 +2°C° 0 mm 6 m/S 756 mmHg 82%
    17:00 +1°C° 0 mm 6 m/S 756 mmHg 82%
    18:00 +1°C° 0 mm 5 m/S 756 mmHg 82%
    19:00 +1°C° 0 mm 5 m/S 756 mmHg 82%
    20:00 +1°C° 0 mm 5 m/S 757 mmHg 82%
    21:00 +1°C° 0 mm 5 m/S 757 mmHg 82%
    22:00 +1°C° 0 mm 4 m/S 757 mmHg 82%
    23:00 +1°C° 0 mm 4 m/S 757 mmHg 81%

    Morgen, 13 Dezember, Donnerstag

    Zeit Temperatur Niederschläge Wind Luftdruck Luftfeuchtigkeit
    00:00 +1°C° 0 mm 4 m/S 758 mmHg 81%
    01:00 +1°C° 0 mm 4 m/S 758 mmHg 80%
    02:00 +1°C° 0 mm 5 m/S 758 mmHg 79%
    03:00 +1°C° 0 mm 5 m/S 759 mmHg 79%
    04:00 +1°C° 0 mm 5 m/S 759 mmHg 78%
    05:00 +1°C° 0 mm 4 m/S 759 mmHg 78%
    06:00 +1°C° 0 mm 5 m/S 759 mmHg 78%
    07:00 +1°C° 0 mm 5 m/S 759 mmHg 77%
    08:00 +1°C° 0 mm 5 m/S 760 mmHg 77%
    09:00 +2°C° 0 mm 5 m/S 760 mmHg 71%
    10:00 +3°C° 0 mm 6 m/S 760 mmHg 65%
    11:00 +4°C° 0 mm 6 m/S 760 mmHg 59%
    12:00 +4°C° 0.1 mm 6 m/S 760 mmHg 59%
    13:00 +5°C° 0.1 mm 5 m/S 760 mmHg 59%
    14:00 +5°C° 0.1 mm 5 m/S 760 mmHg 59%
    15:00 +4°C° 0.1 mm 4 m/S 760 mmHg 65%
    16:00 +3°C° 0.1 mm 4 m/S 761 mmHg 70%
    17:00 +3°C° 0.1 mm 3 m/S 761 mmHg 75%
    18:00 +2°C° 0 mm 3 m/S 761 mmHg 76%
    19:00 +1°C° 0 mm 4 m/S 761 mmHg 77%
    20:00 +1°C° 0 mm 4 m/S 761 mmHg 78%
    21:00 +1°C° 0 mm 4 m/S 762 mmHg 79%
    22:00 +1°C° 0 mm 4 m/S 762 mmHg 79%
    23:00 0°C° 0 mm 4 m/S 762 mmHg 79%

    übermorgen, 14 Dezember, Freitag

    Zeit Temperatur Niederschläge Wind Luftdruck Luftfeuchtigkeit
    00:00 0°C° 0 mm 4 m/S 762 mmHg 80%
    01:00 +1°C° 0 mm 3 m/S 762 mmHg 80%
    02:00 +1°C° 0 mm 3 m/S 763 mmHg 80%
    03:00 +1°C° 0 mm 3 m/S 763 mmHg 80%
    04:00 +1°C° 0 mm 3 m/S 762 mmHg 80%
    05:00 +1°C° 0 mm 3 m/S 762 mmHg 80%
    06:00 +1°C° 0 mm 3 m/S 763 mmHg 79%
    07:00 +1°C° 0 mm 3 m/S 763 mmHg 78%
    08:00 +2°C° 0 mm 3 m/S 764 mmHg 77%
    09:00 +3°C° 0 mm 3 m/S 764 mmHg 72%
    10:00 +4°C° 0 mm 3 m/S 764 mmHg 66%
    11:00 +5°C° 0 mm 4 m/S 764 mmHg 61%
    12:00 +5°C° 0 mm 4 m/S 764 mmHg 60%
    13:00 +5°C° 0 mm 4 m/S 764 mmHg 59%
    14:00 +6°C° 0 mm 4 m/S 764 mmHg 58%
    15:00 +5°C° 0 mm 3 m/S 765 mmHg 62%
    16:00 +4°C° 0 mm 2 m/S 765 mmHg 67%
    17:00 +3°C° 0 mm 2 m/S 765 mmHg 72%
    18:00 +3°C° 0 mm 2 m/S 765 mmHg 74%
    19:00 +4°C° 0 mm 1 m/S 766 mmHg 75%
    20:00 +3°C° 0 mm 1 m/S 766 mmHg 77%
    21:00 +3°C° 0 mm 1 m/S 766 mmHg 78%
    22:00 +3°C° 0 mm 1 m/S 767 mmHg 79%
    23:00 +3°C° 0 mm 1 m/S 767 mmHg 80%

    15 Dezember, Samstag

    Zeit Temperatur Niederschläge Wind Luftdruck Luftfeuchtigkeit
    00:00 +2°C° 0 mm 1 m/S 767 mmHg 81%
    01:00 +2°C° 0 mm 1 m/S 767 mmHg 81%
    02:00 +2°C° 0 mm 1 m/S 767 mmHg 82%
    03:00 +2°C° 0 mm 1 m/S 767 mmHg 82%
    04:00 +2°C° 0 mm 1 m/S 767 mmHg 82%
    05:00 +1°C° 0 mm 0 m/S 767 mmHg 83%
    06:00 +2°C° 0 mm 1 m/S 768 mmHg 83%
    07:00 +2°C° 0 mm 1 m/S 768 mmHg 82%
    08:00 +2°C° 0 mm 1 m/S 768 mmHg 82%
    09:00 +3°C° 0 mm 1 m/S 768 mmHg 78%
    10:00 +3°C° 0 mm 2 m/S 768 mmHg 74%
    11:00 +4°C° 0 mm 2 m/S 768 mmHg 70%
    12:00 +4°C° 0 mm 2 m/S 768 mmHg 70%
    13:00 +4°C° 0 mm 2 m/S 768 mmHg 71%
    14:00 +4°C° 0 mm 2 m/S 768 mmHg 72%
    15:00 +3°C° 0 mm 2 m/S 768 mmHg 76%
    16:00 +1°C° 0 mm 3 m/S 768 mmHg 81%
    17:00 0°C° 0 mm 3 m/S 768 mmHg 86%
    18:00 0°C° 0 mm 3 m/S 769 mmHg 85%
    19:00 0°C° 0 mm 3 m/S 769 mmHg 84%
    20:00 -1°C° 0 mm 3 m/S 769 mmHg 84%
    21:00 -1°C° 0 mm 3 m/S 769 mmHg 83%
    22:00 -1°C° 0 mm 3 m/S 769 mmHg 82%
    23:00 -1°C° 0 mm 3 m/S 769 mmHg 81%

    16 Dezember, Sonntag

    Zeit Temperatur Niederschläge Wind Luftdruck Luftfeuchtigkeit
    00:00 -2°C° 0 mm 4 m/S 769 mmHg 81%
    01:00 -2°C° 0 mm 4 m/S 769 mmHg 80%
    02:00 -2°C° 0 mm 4 m/S 769 mmHg 80%
    03:00 -2°C° 0 mm 4 m/S 769 mmHg 80%
    04:00 -2°C° 0 mm 4 m/S 769 mmHg 81%
    05:00 -2°C° 0 mm 5 m/S 769 mmHg 81%
    06:00 -2°C° 0 mm 5 m/S 769 mmHg 81%
    07:00 -2°C° 0 mm 5 m/S 769 mmHg 81%
    08:00 -1°C° 0 mm 5 m/S 769 mmHg 81%
    09:00 -1°C° 0 mm 6 m/S 769 mmHg 76%
    10:00 +1°C° 0 mm 6 m/S 769 mmHg 71%
    11:00 +2°C° 0 mm 7 m/S 769 mmHg 67%
    12:00 +2°C° 0 mm 7 m/S 769 mmHg 68%
    13:00 0°C° 0 mm 7 m/S 769 mmHg 70%
    14:00 0°C° 0 mm 7 m/S 769 mmHg 71%
    15:00 0°C° 0 mm 7 m/S 769 mmHg 75%
    16:00 -1°C° 0 mm 7 m/S 769 mmHg 78%
    17:00 -1°C° 0 mm 7 m/S 769 mmHg 82%
    18:00 -1°C° 0 mm 7 m/S 769 mmHg 83%
    19:00 -1°C° 0 mm 6 m/S 769 mmHg 83%
    20:00 -2°C° 0 mm 6 m/S 769 mmHg 84%
    21:00 -2°C° 0 mm 6 m/S 769 mmHg 84%
    22:00 -2°C° 0 mm 6 m/S 769 mmHg 85%
    23:00 -2°C° 0 mm 6 m/S 768 mmHg 86%

    17 Dezember, Montag

    Zeit Temperatur Niederschläge Wind Luftdruck Luftfeuchtigkeit
    00:00 -2°C° 0 mm 6 m/S 768 mmHg 87%
    01:00 -2°C° 0 mm 6 m/S 768 mmHg 87%
    02:00 -2°C° 0 mm 6 m/S 768 mmHg 88%
    03:00 -2°C° 0 mm 6 m/S 768 mmHg 87%
    04:00 -2°C° 0 mm 6 m/S 768 mmHg 86%
    05:00 -2°C° 0 mm 7 m/S 767 mmHg 85%
    06:00 -2°C° 0 mm 7 m/S 767 mmHg 85%
    07:00 -2°C° 0 mm 7 m/S 767 mmHg 84%
    08:00 -2°C° 0 mm 7 m/S 768 mmHg 84%
    09:00 -1°C° 0 mm 7 m/S 767 mmHg 82%
    10:00 -1°C° 0 mm 6 m/S 767 mmHg 81%
    11:00 -1°C° 0 mm 6 m/S 767 mmHg 79%
    12:00 -1°C° 0 mm 6 m/S 767 mmHg 79%
    13:00 -1°C° 0 mm 6 m/S 767 mmHg 79%
    14:00 -1°C° 0 mm 6 m/S 766 mmHg 79%
    15:00 -1°C° 0 mm 6 m/S 767 mmHg 81%
    16:00 -1°C° 0 mm 6 m/S 767 mmHg 82%
    17:00 -2°C° 0 mm 6 m/S 767 mmHg 83%
    18:00 -1°C° 0 mm 5 m/S 767 mmHg 83%
    19:00 -1°C° 0 mm 5 m/S 767 mmHg 83%
    20:00 -1°C° 0 mm 5 m/S 767 mmHg 83%
    21:00 -1°C° 0 mm 5 m/S 767 mmHg 84%
    22:00 -1°C° 0 mm 4 m/S 767 mmHg 84%
    23:00 -1°C° 0 mm 4 m/S 767 mmHg 85%
    Mehr zeigen